sat.trackr.live / text

‹ back to catalog

GPS BIIF-10 (PRN 08)

NORAD 40730 · 2015-033A

PAYLOAD ACTIVE UNKNOWN

§ Identity

Operator
Country
US
Launch date
2015-07-15
Launch site
AFETR
Launch vehicle
Mass (kg)
RCS (m²)
23.10

Purposes: earth_obs, nav

External: N2YO · Heavens-Above · Gunter

§ Orbital elements

Epoch: 2026-09-19T22:55:37.452576Z

Period
718.02 min
Inclination
53.9163°
Eccentricity
0.0117513
Mean motion
2.00551382 rev/d
Perigee alt
19,871.2 km
Apogee alt
20,495.4 km
Semi-major
26,561.4 km
B*
0.0000e+0
RAAN
263.1722°
Arg perigee
30.5847°
Mean anomaly
330.1153°
Rev number
8,189

§ Raw data

GPS BIIF-10 (PRN 08)1 40730U 15033A   26262.95529459  .00000028  00000+0  00000+0 0  99902 40730  53.9163 263.1722 0117513  30.5847 330.1153  2.00551382 81899

JSON: /api/v1/satellites/40730 · /tle

For live sub-satellite position, see the globe view (requires WebGL).

§ Visibility from observer

Set your observer location to see the next 7 days of passes ≥ 10°. The values pass through the URL so the page stays shareable.

No JS? Fill the form by hand. The geolocation button needs JavaScript.